Location: Unspecified
(0.0000°N, 0.0000°E)
Time: 01:50:15
(UTC+00:00)

Fuji - Pass Details

Date: 02 December 2022
Orbit: 1479 x 1496 km, 50.0° (Epoch: 26 January)

Event Time Altitude Azimuth Distance (km) Brightness Sun altitude
Rises 04:30:57 0° 189° (S) 4,624 ? -18.1°
Reaches altitude 10° 04:35:08 10° 173° (S) 3,641 ? -17.2°
Maximum altitude 04:41:18 20° 130° (SE) 2,935 ? -15.7°
Drops below altitude 10° 04:47:25 10° 87° (E) 3,628 ? -14.3°
Sets 04:51:30 0° 71° (ENE) 4,603 ? -13.4°
